Theta_e
321 325 324 324 325 323 320 322 325 328 327 325 322 322 321 320 320 320 321 324 325 325 327 327 324 321 320 319 318 318 318 317 317 317 318 318 318 318 318 317 317 317 317
323 326 328 328 328 328 326 324 322 326 327 327 327 321 320 320 319 319 319 321 323 324 323 326 325 322 320 320 319 317 317 317 316 317 317 316 316 316 316 316 316 316 316
334 328 329 329 329 330 329 327 325 325 327 329 330 327 321 320 319 319 318 317 319 321 322 324 324 323 321 320 319 318 317 317 316 316 315 315 315 315 314 314 314 314 314
336 335 331 330 330 330 331 330 328 327 328 329 330 331 329 324 322 319 318 317 316 319 320 321 321 323 322 320 320 318 317 316 315 315 314 314 313 313 313 313 313 313 313
336 336 336 332 330 330 330 331 330 328 329 329 330 330 330 331 327 322 318 317 316 316 319 320 320 319 320 321 320 319 317 315 314 313 312 312 311 312 312 312 312 312 312
337 335 336 335 331 330 331 331 330 330 329 329 328 329 329 330 329 322 319 317 316 315 316 318 319 319 318 318 319 319 319 316 313 312 311 310 310 310 310 310 310 311 311
336 335 334 332 331 331 332 331 331 330 329 328 326 325 326 326 324 323 319 316 315 315 314 315 318 318 318 316 316 318 318 319 315 312 310 310 309 309 309 309 310 310 311
337 337 337 336 335 335 334 333 331 329 329 329 326 318 322 324 325 325 322 318 316 314 313 313 315 317 318 316 316 314 316 317 316 313 310 309 309 309 309 309 309 310 311
334 336 336 336 335 334 332 331 333 331 328 328 327 326 318 318 312 321 322 320 318 316 313 312 312 315 317 316 315 314 313 315 316 315 311 309 308 308 309 309 310 311 310
318 320 326 332 334 333 333 332 331 332 330 327 326 325 325 321 317 320 316 316 314 312 311 311 311 311 312 315 315 314 313 312 313 314 313 311 309 308 309 309 309 309 309
313 314 317 319 324 331 333 332 330 330 330 329 328 327 324 321 317 311 320 318 315 314 313 310 309 309 309 311 314 314 313 310 311 312 311 310 309 309 309 309 308 308 309
315 316 317 319 323 325 330 332 331 330 328 327 327 326 324 321 317 315 313 315 315 315 316 314 312 311 307 307 309 311 312 310 309 309 310 308 307 309 308 306 305 305 306
314 315 315 316 318 320 324 327 328 328 327 326 326 326 325 324 323 322 319 317 313 311 312 313 313 310 310 307 306 306 308 308 307 307 307 306 305 305 304 305 305 305 305
311 311 311 312 314 316 320 323 325 326 326 325 323 321 323 321 321 321 320 318 311 305 304 310 311 309 308 306 306 307 304 305 305 305 306 307 305 305 304 303 303 302 302
308 308 308 308 309 312 315 318 320 320 320 319 317 315 316 317 316 317 318 317 316 312 307 308 307 306 305 305 303 303 303 305 305 305 304 304 305 304 302 301 301 300 300
304 305 306 306 307 308 309 311 313 313 312 311 311 311 312 312 312 312 311 310 312 311 309 306 301 302 302 300 300 301 302 303 304 303 302 301 301 301 300 299 299 299 299
303 303 303 304 305 305 306 307 308 308 308 307 306 306 307 307 306 305 305 305 305 304 303 301 300 299 299 296 298 299 300 301 301 300 301 299 298 297 297 297 298 299 298
300 300 301 301 301 302 302 303 304 304 304 303 303 303 302 302 302 301 302 302 302 301 300 298 295 294 294 294 295 296 296 297 296 298 297 296 296 296 295 296 296 295 295
298 299 299 298 298 298 299 299 300 300 300 299 298 298 298 298 298 298 298 298 298 297 297 296 293 292 291 291 291 292 292 292 293 293 292 292 293 293 293 294 294 293 292
295 295 295 294 294 295 296 297 297 297 296 295 295 295 295 295 295 294 295 295 295 295 294 294 292 291 291 291 290 291 290 291 291 291 290 289 289 289 289 290 290 290 290
293 294 294 293 293 293 293 295 294 294 293 293 294 294 294 294 294 293 293 292 293 293 292 292 291 291 290 290 290 289 289 288 287 287 287 287 287 287 286 286 285 285 287
293 293 293 293 293 293 293 293 294 293 292 292 291 291 292 292 292 290 290 291 291 290 289 289 289 288 287 287 287 287 287 286 285 285 285 285 285 284 284 284 284 285 286
293 292 292 292 291 291 290 290 290 289 288 286 286 285 285 286 286 285 285 285 285 286 288 287 287 286 286 286 286 285 285 285 285 285 284 283 283 283 284 285 285 286 287
291 290 288 288 288 288 287 285 285 284 284 284 284 284 283 285 287 286 285 285 285 285 286 285 285 285 285 285 285 285 285 284 284 284 283 283 283 284 284 285 285 285 286
288 287 287 287 288 287 287 285 284 284 283 283 283 284 285 285 287 286 285 284 284 285 285 285 284 285 285 285 285 285 284 284 283 282 283 283 282 283 284 285 284 285 286
287 286 286 286 286 287 288 286 284 284 283 283 283 283 283 286 285 285 284 283 282 282 283 283 283 282 282 282 282 283 283 283 283 281 282 282 282 282 282 283 283 284 284
Wind_Speed
16 14 14 14 15 14 15 16 16 16 15 14 15 15 15 16 14 14 15 16 16 14 11 10 10 9 8 8 7 7 7 6 6 6 6 6 8 8 7 7 7 8 8
17 18 17 18 17 16 16 17 18 18 18 18 18 19 19 19 18 17 17 18 18 17 15 12 12 12 11 10 9 8 8 8 7 7 7 6 6 7 7 7 7 6 7
19 20 20 21 21 19 19 19 19 20 21 21 21 20 22 21 21 21 20 19 20 21 20 16 14 14 13 13 12 11 10 10 9 8 7 7 7 7 7 7 6 6 6
23 24 25 25 24 24 23 22 22 23 25 25 25 25 25 25 24 24 24 23 23 24 23 21 18 16 16 15 15 14 13 12 11 10 8 8 7 7 7 6 6 5 5
26 28 29 28 26 27 28 28 28 27 28 29 30 29 29 30 30 27 28 27 26 26 27 25 23 21 20 19 18 17 16 15 15 14 13 10 9 8 7 7 6 6 5
28 30 32 31 30 28 29 31 30 31 31 33 32 33 32 32 32 32 32 29 29 29 30 29 27 26 24 24 21 19 18 17 15 15 14 13 12 10 9 8 7 6 6
23 26 29 30 30 29 29 28 30 30 31 30 27 26 29 31 31 34 35 33 33 33 33 33 32 30 28 27 27 23 21 20 18 16 15 14 13 11 11 9 8 7 6
24 24 25 26 24 24 25 28 32 30 28 27 13 5 4 13 25 33 37 37 38 37 36 35 35 33 32 30 30 29 26 23 21 19 17 15 14 12 11 11 9 8 8
17 19 21 23 23 22 24 25 28 29 25 23 24 15 2 4 3 11 22 31 39 40 39 36 34 34 35 34 32 33 32 30 24 22 18 16 14 13 12 12 11 9 7
12 13 16 20 22 23 22 22 22 25 25 21 18 22 28 16 3 6 9 15 19 24 32 35 35 34 35 37 38 37 34 32 27 24 21 18 15 13 13 12 11 9 7
14 15 14 15 18 21 22 21 20 20 20 20 20 18 20 22 20 5 10 5 12 15 17 22 30 33 35 36 39 39 35 30 27 26 22 18 17 16 13 11 9 6 5
3 6 6 8 12 17 19 20 18 18 17 17 18 19 18 10 7 10 7 10 12 18 21 23 23 25 28 29 32 35 37 32 28 25 21 17 18 17 18 18 17 16 13
5 7 8 8 8 8 9 11 13 14 12 12 13 13 15 21 21 18 13 8 3 5 8 17 22 24 25 28 28 26 31 31 27 27 28 22 23 21 21 21 19 17 14
7 9 8 8 8 7 6 5 5 6 6 5 6 7 7 9 12 15 15 8 3 5 5 13 18 17 20 25 27 26 23 26 30 30 24 24 24 24 26 22 18 16 18
6 7 8 7 7 6 5 2 1 3 6 6 5 6 6 5 9 12 17 20 10 2 3 6 7 9 14 18 19 22 23 23 27 28 28 24 21 22 22 21 21 20 19
5 6 7 8 8 8 7 4 3 3 2 3 5 6 6 9 9 8 7 7 8 8 3 2 4 11 12 11 9 18 18 19 23 22 23 21 20 20 20 18 19 19 19
5 5 6 6 7 7 7 6 6 6 6 7 7 7 6 5 4 3 3 2 3 4 2 3 7 10 9 6 9 10 12 19 21 17 14 14 16 17 15 15 18 18 12
5 6 6 6 7 8 8 9 9 10 10 10 10 8 8 7 6 5 5 4 3 3 3 3 4 4 4 6 9 10 11 12 14 15 16 14 14 15 15 17 15 13 13
7 7 8 9 9 9 9 9 9 10 11 11 11 10 10 8 8 7 7 6 5 3 1 1 1 2 1 3 6 7 7 8 11 11 11 10 11 13 13 13 13 12 12
10 11 12 14 14 14 12 13 15 15 15 15 15 15 15 13 10 9 9 8 7 6 6 5 3 2 3 3 1 3 3 4 6 7 6 6 8 9 10 10 12 13 13
12 13 16 17 18 18 16 16 17 17 17 16 16 16 18 16 14 12 11 10 8 7 7 6 3 2 2 2 1 0 1 2 3 4 5 7 10 13 16 17 19 18 16
13 15 16 17 18 17 15 15 15 16 15 15 14 12 11 10 9 12 11 11 11 10 8 5 4 3 3 3 2 1 1 0 1 2 4 8 11 18 18 18 17 15 13
13 14 14 14 15 15 14 15 15 15 15 15 13 12 12 12 11 9 8 7 6 7 7 5 4 4 4 4 4 4 3 3 4 8 11 14 13 19 13 12 11 11 11
12 12 13 13 14 14 12 12 12 12 12 12 12 11 11 10 11 11 10 7 6 6 5 4 3 3 4 5 6 7 7 9 11 13 12 6 9 12 13 11 12 15 16
12 12 12 11 12 12 9 8 8 9 9 8 8 8 10 9 8 9 11 9 7 2 0 1 2 3 3 4 7 7 6 6 5 4 3 6 7 13 14 14 10 3 6
11 9 8 8 8 9 8 8 9 9 8 7 7 6 5 7 8 9 11 10 10 6 6 7 8 7 7 6 7 7 7 8 6 5 3 3 6 9 8 5 4 9 12
Wind_Direction
229 227 227 228 234 238 241 241 244 244 246 248 244 243 245 250 256 248 251 244 243 250 239 231 224 219 214 211 207 199 195 189 183 171 161 156 145 141 137 131 127 125 122
234 235 238 238 240 244 250 251 252 253 255 254 254 251 255 254 262 258 257 248 248 249 255 236 230 226 224 218 217 213 209 204 196 187 180 172 161 152 147 144 136 131 128
238 240 245 248 250 251 252 252 254 256 257 255 257 255 255 256 262 264 262 252 251 249 250 246 234 229 227 224 221 217 214 212 208 201 194 186 179 174 165 158 151 144 137
246 246 248 251 251 251 253 253 254 255 256 257 259 259 259 258 258 257 259 259 253 250 249 250 247 235 230 230 228 225 218 211 213 208 209 199 197 192 185 178 170 164 157
250 250 252 255 256 253 252 253 255 253 257 261 262 265 261 258 258 259 259 260 258 253 249 250 251 250 240 229 230 228 226 219 208 207 203 205 205 205 204 201 194 191 187
250 253 252 254 258 259 258 255 254 259 259 263 267 267 268 263 255 254 256 259 260 257 251 248 247 246 244 238 231 232 232 229 227 218 213 207 203 204 203 208 210 205 205
255 256 255 255 256 260 264 264 262 260 261 260 263 270 270 265 258 255 254 255 257 257 254 250 246 245 245 242 237 230 231 231 229 230 226 220 215 213 212 212 215 218 223
261 262 259 260 267 268 268 265 260 260 264 265 249 260 291 281 266 262 257 254 255 256 256 254 250 247 246 246 242 235 227 229 228 226 226 225 222 222 222 221 221 225 235
266 267 266 265 265 268 271 275 267 261 253 259 255 237 280 236 324 256 260 259 258 257 257 256 254 251 249 247 246 242 237 226 226 225 224 224 227 227 224 223 227 219 237
274 274 271 266 265 268 272 275 277 266 261 250 251 246 245 257 251 294 261 268 270 266 262 259 259 258 254 249 246 243 240 232 229 226 224 225 227 232 230 222 231 228 231
272 272 276 274 269 266 267 270 270 271 266 262 255 253 264 255 257 243 286 280 285 290 283 271 268 266 264 259 252 250 241 237 227 230 228 229 233 227 218 216 217 240 244
296 290 306 297 283 271 265 264 271 268 268 270 270 266 251 235 222 222 247 263 259 272 281 276 268 268 263 262 258 253 253 236 218 217 233 230 227 207 211 221 221 226 231
321 323 324 316 315 318 288 266 259 262 269 270 276 274 271 261 263 254 247 265 254 273 268 275 273 267 263 260 256 255 253 240 227 213 214 219 227 221 234 221 212 210 213
334 334 333 326 314 313 304 279 263 260 265 268 270 282 289 292 283 279 257 247 262 243 263 258 270 273 274 265 255 240 238 233 230 234 224 215 227 219 228 222 222 238 261
331 332 333 336 339 335 340 1 226 247 271 283 292 312 315 308 315 297 278 268 249 244 257 270 253 274 278 278 271 253 242 232 230 223 221 223 227 238 227 237 254 261 255
346 348 350 350 349 351 357 351 9 12 355 348 339 341 332 318 304 297 293 284 264 260 274 272 288 287 299 293 279 240 237 233 225 214 220 236 240 240 244 249 254 255 261
14 17 19 19 20 23 26 21 29 29 19 22 23 27 26 15 28 27 25 14 327 303 296 298 301 295 284 262 232 218 205 193 192 214 220 226 238 249 251 254 261 263 253
43 46 44 44 44 43 44 45 48 50 47 47 45 44 53 51 56 55 50 45 31 352 318 298 317 315 278 254 249 248 230 229 232 215 218 233 240 240 259 264 261 263 261
64 62 59 56 49 49 53 58 65 64 58 56 56 55 57 57 62 61 66 68 71 50 26 278 12 342 106 197 217 235 241 249 257 256 248 248 247 251 257 259 258 256 259
74 64 61 60 57 63 70 77 75 76 78 78 74 67 60 55 62 61 64 61 56 57 67 77 70 40 29 19 233 227 215 244 254 255 253 244 237 238 246 253 258 258 256
84 85 78 69 65 61 63 75 82 84 82 77 73 73 73 68 56 55 50 48 46 45 45 52 66 70 65 53 43 19 144 232 237 239 248 247 262 263 264 265 263 259 255
94 90 84 80 74 66 66 71 78 80 78 73 70 68 68 59 53 50 45 45 38 27 26 22 18 12 33 30 16 8 83 264 338 338 302 287 289 280 278 273 267 259 260
98 92 88 85 81 72 65 66 68 73 72 70 65 57 52 46 33 32 32 30 25 32 34 5 350 360 355 358 6 6 346 314 290 305 311 295 301 294 281 267 261 258 259
107 97 88 82 79 69 65 61 62 61 59 57 51 43 35 37 31 14 12 11 13 29 28 19 11 357 335 326 318 310 313 312 308 299 288 275 302 297 293 268 265 260 251
115 105 95 89 82 71 59 54 51 48 46 44 35 34 24 28 20 2 358 0 354 351 16 8 345 337 309 293 300 275 281 284 298 287 276 278 312 322 309 293 268 209 181
128 119 106 92 81 77 59 48 39 38 38 28 20 16 9 5 353 348 337 340 339 336 320 312 305 289 280 283 258 260 268 259 262 304 341 299 331 348 320 316 259 237 223